TimeEST,TemperatureF,Dew PointF,Humidity,Sea Level PressureIn,VisibilityMPH,Wind Direction,Wind SpeedMPH,Gust SpeedMPH,PrecipitationIn,Events,Conditions,WindDirDegrees,DateUTC
12:54 AM,10.9,3.0,70,30.11,10.0,NNW,16.1,25.3,N/A,,Overcast,340,2013-02-10 05:54:00
1:54 AM,10.9,1.9,67,30.13,10.0,NNW,15.0,21.9,N/A,,Overcast,340,2013-02-10 06:54:00
2:54 AM,10.9,1.9,67,30.14,10.0,NNW,12.7,-,N/A,,Overcast,340,2013-02-10 07:54:00
3:54 AM,10.9,1.9,67,30.14,10.0,NNW,18.4,21.9,N/A,,Partly Cloudy,330,2013-02-10 08:54:00
4:54 AM,10.0,1.0,67,30.16,10.0,NNW,17.3,-,N/A,,Clear,330,2013-02-10 09:54:00
5:54 AM,9.0,-0.0,67,30.18,10.0,NNW,11.5,-,N/A,,Partly Cloudy,340,2013-02-10 10:54:00
6:54 AM,8.1,-0.9,67,30.19,10.0,NNW,13.8,-,N/A,,Clear,330,2013-02-10 11:54:00
7:54 AM,10.0,-0.0,64,30.22,10.0,NNW,16.1,19.6,N/A,,Clear,330,2013-02-10 12:54:00
8:54 AM,10.9,1.0,64,30.25,10.0,NNW,12.7,-,N/A,,Clear,330,2013-02-10 13:54:00
9:54 AM,14.0,1.0,56,30.27,10.0,NNW,15.0,24.2,N/A,,Clear,330,2013-02-10 14:54:00
10:54 AM,17.1,1.9,52,30.27,10.0,NW,12.7,18.4,N/A,,Clear,320,2013-02-10 15:54:00
11:54 AM,21.0,3.9,48,30.26,10.0,NW,10.4,-,N/A,,Clear,320,2013-02-10 16:54:00
12:54 PM,23.0,3.0,42,30.25,10.0,NNW,15.0,21.9,N/A,,Clear,330,2013-02-10 17:54:00
1:54 PM,25.0,3.9,41,30.24,10.0,NNW,8.1,-,N/A,,Clear,330,2013-02-10 18:54:00
2:54 PM,25.0,3.0,39,30.25,10.0,NW,10.4,-,N/A,,Clear,310,2013-02-10 19:54:00
3:54 PM,24.1,-0.0,35,30.25,10.0,NW,11.5,-,N/A,,Clear,320,2013-02-10 20:54:00
4:54 PM,21.0,-2.0,36,30.26,10.0,NW,9.2,-,N/A,,Clear,320,2013-02-10 21:54:00
5:54 PM,19.0,-4.0,36,30.28,10.0,NW,5.8,-,N/A,,Clear,310,2013-02-10 22:54:00
6:54 PM,15.1,-2.9,45,30.30,10.0,Calm,Calm,-,N/A,,Clear,0,2013-02-10 23:54:00
7:54 PM,16.0,-4.0,41,30.30,10.0,WNW,6.9,-,N/A,,Clear,300,2013-02-11 00:54:00
8:54 PM,12.9,-5.1,45,30.30,10.0,Calm,Calm,-,N/A,,Clear,0,2013-02-11 01:54:00
9:54 PM,10.0,-2.9,56,30.29,10.0,Calm,Calm,-,N/A,,Clear,0,2013-02-11 02:54:00
10:54 PM,5.0,-4.0,66,30.27,10.0,Calm,Calm,-,N/A,,Clear,0,2013-02-11 03:54:00
11:54 PM,6.1,-4.0,63,30.27,10.0,Calm,Calm,-,N/A,,Clear,0,2013-02-11 04:54:00